Time,TemperatureF,DewpointF,PressureIn,WindDirection,WindDirectionDegrees,WindSpeedMPH,WindSpeedGustMPH,Humidity,HourlyPrecipIn,Conditions,Clouds,dailyrainin,SoftwareType,DateUTC
2013-03-23 00:02:00,26.1,19.3,30.04,East,82,0.0,1.0,75,0.00,,,0.00,Wunderground v.1.15,2013-03-23 05:02:00,
2013-03-23 00:08:00,26.0,19.5,30.04,East,82,1.0,3.0,76,0.00,,,0.00,Wunderground v.1.15,2013-03-23 05:08:00,
2013-03-23 00:13:00,25.8,19.3,30.04,East,82,3.0,4.0,76,0.00,,,0.00,Wunderground v.1.15,2013-03-23 05:13:00,
2013-03-23 00:19:00,25.7,19.2,30.02,East,81,0.0,4.0,76,0.00,,,0.00,Wunderground v.1.15,2013-03-23 05:19:00,
2013-03-23 00:24:00,25.6,19.1,30.02,East,81,0.0,3.0,76,0.00,,,0.00,Wunderground v.1.15,2013-03-23 05:24:00,
2013-03-23 00:30:00,25.4,18.9,30.02,East,82,0.0,2.0,76,0.00,,,0.00,Wunderground v.1.15,2013-03-23 05:30:00,
2013-03-23 00:35:00,25.4,18.9,30.02,East,82,0.0,2.0,76,0.00,,,0.00,Wunderground v.1.15,2013-03-23 05:35:00,
2013-03-23 00:40:00,25.3,18.8,30.02,East,82,0.0,0.0,76,0.00,,,0.00,Wunderground v.1.15,2013-03-23 05:40:00,
2013-03-23 00:46:00,25.1,18.6,30.04,East,82,0.0,1.0,76,0.00,,,0.00,Wunderground v.1.15,2013-03-23 05:46:00,
2013-03-23 00:52:00,25.0,18.8,30.04,East,82,0.0,0.0,77,0.00,,,0.00,Wunderground v.1.15,2013-03-23 05:52:00,
2013-03-23 00:58:00,25.0,18.8,30.04,East,82,0.0,0.0,77,0.00,,,0.00,Wunderground v.1.15,2013-03-23 05:58:00,
2013-03-23 01:03:00,24.8,18.6,30.04,East,82,0.0,0.0,77,0.00,,,0.00,Wunderground v.1.15,2013-03-23 06:03:00,
2013-03-23 01:09:00,24.8,18.9,30.04,East,82,0.0,0.0,78,0.00,,,0.00,Wunderground v.1.15,2013-03-23 06:09:00,
2013-03-23 01:15:00,24.7,18.8,30.06,East,82,0.0,0.0,78,0.00,,,0.00,Wunderground v.1.15,2013-03-23 06:15:00,
2013-03-23 01:20:00,24.5,18.6,30.06,East,82,0.0,0.0,78,0.00,,,0.00,Wunderground v.1.15,2013-03-23 06:20:00,
2013-03-23 01:25:00,24.4,18.5,30.06,East,82,0.0,0.0,78,0.00,,,0.00,Wunderground v.1.15,2013-03-23 06:25:00,
2013-03-23 01:31:00,24.2,18.6,30.06,East,82,0.0,0.0,79,0.00,,,0.00,Wunderground v.1.15,2013-03-23 06:31:00,
2013-03-23 01:37:00,24.1,18.8,30.06,East,82,0.0,0.0,80,0.00,,,0.00,Wunderground v.1.15,2013-03-23 06:37:00,
2013-03-23 01:43:00,23.9,18.6,30.06,East,82,0.0,0.0,80,0.00,,,0.00,Wunderground v.1.15,2013-03-23 06:43:00,
2013-03-23 01:49:00,23.8,18.5,30.05,East,82,0.0,0.0,80,0.00,,,0.00,Wunderground v.1.15,2013-03-23 06:49:00,
2013-03-23 01:55:00,23.8,18.8,30.05,East,82,0.0,0.0,81,0.00,,,0.00,Wunderground v.1.15,2013-03-23 06:55:00,
2013-03-23 02:00:00,23.8,18.8,30.07,East,82,0.0,0.0,81,0.00,,,0.00,Wunderground v.1.15,2013-03-23 07:00:00,
2013-03-23 02:05:00,23.6,18.6,30.07,East,82,0.0,0.0,81,0.00,,,0.00,Wunderground v.1.15,2013-03-23 07:05:00,
2013-03-23 02:10:00,23.5,18.5,30.07,East,82,0.0,0.0,81,0.00,,,0.00,Wunderground v.1.15,2013-03-23 07:10:00,
2013-03-23 02:15:00,23.3,18.6,30.07,East,82,0.0,0.0,82,0.00,,,0.00,Wunderground v.1.15,2013-03-23 07:15:00,
2013-03-23 02:20:00,23.5,18.8,30.07,East,82,0.0,0.0,82,0.00,,,0.00,Wunderground v.1.15,2013-03-23 07:20:00,
2013-03-23 02:25:00,23.5,18.8,30.07,East,82,0.0,0.0,82,0.00,,,0.00,Wunderground v.1.15,2013-03-23 07:25:00,
2013-03-23 02:30:00,23.6,19.2,30.07,East,82,0.0,0.0,83,0.00,,,0.00,Wunderground v.1.15,2013-03-23 07:30:00,
2013-03-23 02:35:00,23.6,19.2,30.07,East,82,0.0,0.0,83,0.00,,,0.00,Wunderground v.1.15,2013-03-23 07:35:00,
2013-03-23 02:40:00,23.8,19.4,30.07,East,82,0.0,0.0,83,0.00,,,0.00,Wunderground v.1.15,2013-03-23 07:40:00,
2013-03-23 02:45:00,23.8,19.4,30.07,East,82,0.0,0.0,83,0.00,,,0.00,Wunderground v.1.15,2013-03-23 07:45:00,
2013-03-23 02:50:00,23.9,19.5,30.07,East,82,0.0,0.0,83,0.00,,,0.00,Wunderground v.1.15,2013-03-23 07:50:00,
2013-03-23 02:55:00,24.1,19.7,30.07,East,82,0.0,0.0,83,0.00,,,0.00,Wunderground v.1.15,2013-03-23 07:55:00,
2013-03-23 03:00:00,24.4,20.0,30.08,East,82,0.0,0.0,83,0.00,,,0.00,Wunderground v.1.15,2013-03-23 08:00:00,
2013-03-23 03:05:00,24.5,20.1,30.08,East,82,0.0,0.0,83,0.00,,,0.00,Wunderground v.1.15,2013-03-23 08:05:00,
2013-03-23 03:10:00,24.7,20.3,30.08,East,82,0.0,0.0,83,0.00,,,0.00,Wunderground v.1.15,2013-03-23 08:10:00,
2013-03-23 03:15:00,24.8,20.4,30.08,East,82,0.0,0.0,83,0.00,,,0.00,Wunderground v.1.15,2013-03-23 08:15:00,
2013-03-23 03:20:00,25.0,20.3,30.08,East,82,0.0,0.0,82,0.00,,,0.00,Wunderground v.1.15,2013-03-23 08:20:00,
2013-03-23 03:25:00,25.1,20.4,30.08,East,82,0.0,0.0,82,0.00,,,0.00,Wunderground v.1.15,2013-03-23 08:25:00,
2013-03-23 03:30:00,25.3,20.6,30.09,East,82,0.0,0.0,82,0.00,,,0.00,Wunderground v.1.15,2013-03-23 08:30:00,
2013-03-23 03:35:00,25.4,20.4,30.09,East,82,0.0,0.0,81,0.00,,,0.00,Wunderground v.1.15,2013-03-23 08:35:00,
2013-03-23 03:40:00,25.4,20.4,30.09,East,82,0.0,0.0,81,0.00,,,0.00,Wunderground v.1.15,2013-03-23 08:40:00,
2013-03-23 03:45:00,25.6,20.6,30.08,East,82,0.0,0.0,81,0.00,,,0.00,Wunderground v.1.15,2013-03-23 08:45:00,
2013-03-23 03:50:00,25.6,20.6,30.08,East,82,0.0,0.0,81,0.00,,,0.00,Wunderground v.1.15,2013-03-23 08:50:00,
2013-03-23 03:55:00,25.7,20.7,30.08,East,82,0.0,0.0,81,0.00,,,0.00,Wunderground v.1.15,2013-03-23 08:55:00,
2013-03-23 04:01:00,25.7,20.7,30.08,East,82,0.0,0.0,81,0.00,,,0.00,Wunderground v.1.15,2013-03-23 09:01:00,
2013-03-23 04:06:00,25.6,20.6,30.08,East,82,0.0,0.0,81,0.00,,,0.00,Wunderground v.1.15,2013-03-23 09:06:00,
2013-03-23 04:11:00,25.7,20.7,30.08,East,82,0.0,0.0,81,0.00,,,0.00,Wunderground v.1.15,2013-03-23 09:11:00,
2013-03-23 04:16:00,25.7,20.7,30.06,East,82,2.0,4.0,81,0.00,,,0.00,Wunderground v.1.15,2013-03-23 09:16:00,
2013-03-23 04:21:00,25.7,20.7,30.06,East,81,3.0,4.0,81,0.00,,,0.00,Wunderground v.1.15,2013-03-23 09:21:00,
2013-03-23 04:26:00,25.6,20.9,30.06,NE,44,5.0,6.0,82,0.00,,,0.00,Wunderground v.1.15,2013-03-23 09:26:00,
2013-03-23 04:30:00,25.6,21.2,30.06,NE,36,6.0,6.0,83,0.00,,,0.00,Wunderground v.1.15,2013-03-23 09:30:00,
2013-03-23 04:35:00,25.4,21.0,30.06,NNE,31,3.0,7.0,83,0.00,,,0.00,Wunderground v.1.15,2013-03-23 09:35:00,
2013-03-23 04:40:00,25.3,21.4,30.06,NNE,24,4.0,6.0,85,0.00,,,0.00,Wunderground v.1.15,2013-03-23 09:40:00,
2013-03-23 04:45:00,25.1,21.2,30.05,NNE,25,5.0,9.0,85,0.00,,,0.00,Wunderground v.1.15,2013-03-23 09:45:00,
2013-03-23 04:51:00,25.0,21.4,30.05,NNE,25,4.0,6.0,86,0.00,,,0.00,Wunderground v.1.15,2013-03-23 09:51:00,
2013-03-23 04:56:00,24.8,21.2,30.05,NNE,23,3.0,9.0,86,0.00,,,0.00,Wunderground v.1.15,2013-03-23 09:56:00,
2013-03-23 05:01:00,24.8,21.2,30.05,NNE,24,4.0,5.0,86,0.00,,,0.00,Wunderground v.1.15,2013-03-23 10:01:00,
2013-03-23 05:06:00,24.7,21.1,30.05,NNE,26,4.0,7.0,86,0.00,,,0.00,Wunderground v.1.15,2013-03-23 10:06:00,
2013-03-23 05:11:00,24.8,21.5,30.05,NNE,25,1.0,5.0,87,0.00,,,0.00,Wunderground v.1.15,2013-03-23 10:11:00,
2013-03-23 05:16:00,24.8,21.5,30.05,NNE,22,4.0,7.0,87,0.00,,,0.00,Wunderground v.1.15,2013-03-23 10:16:00,
2013-03-23 05:21:00,24.8,21.5,30.05,NNE,22,6.0,7.0,87,0.00,,,0.00,Wunderground v.1.15,2013-03-23 10:21:00,
2013-03-23 05:26:00,24.8,21.5,30.05,NNE,20,5.0,7.0,87,0.00,,,0.00,Wunderground v.1.15,2013-03-23 10:26:00,
2013-03-23 05:31:00,24.8,21.5,30.05,NNE,20,3.0,5.0,87,0.00,,,0.00,Wunderground v.1.15,2013-03-23 10:31:00,
2013-03-23 05:36:00,24.8,21.5,30.05,NNE,20,4.0,5.0,87,0.00,,,0.00,Wunderground v.1.15,2013-03-23 10:36:00,
2013-03-23 05:41:00,24.8,21.5,30.05,NNE,20,3.0,5.0,87,0.00,,,0.00,Wunderground v.1.15,2013-03-23 10:41:00,
2013-03-23 05:46:00,24.7,21.4,30.06,NNE,20,3.0,5.0,87,0.00,,,0.00,Wunderground v.1.15,2013-03-23 10:46:00,
2013-03-23 05:51:00,24.5,21.2,30.06,NNE,19,6.0,6.0,87,0.00,,,0.00,Wunderground v.1.15,2013-03-23 10:51:00,
2013-03-23 05:56:00,24.4,20.8,30.06,NNE,19,4.0,6.0,86,0.00,,,0.00,Wunderground v.1.15,2013-03-23 10:56:00,
2013-03-23 06:01:00,24.2,20.3,30.07,NNE,19,3.0,6.0,85,0.00,,,0.00,Wunderground v.1.15,2013-03-23 11:01:00,
2013-03-23 06:06:00,24.2,20.3,30.07,NNE,19,3.0,6.0,85,0.00,,,0.00,Wunderground v.1.15,2013-03-23 11:06:00,
2013-03-23 06:11:00,24.2,20.1,30.07,NNE,19,3.0,4.0,84,0.00,,,0.00,Wunderground v.1.15,2013-03-23 11:11:00,
2013-03-23 06:16:00,24.1,19.7,30.08,NNE,19,2.0,4.0,83,0.00,,,0.00,Wunderground v.1.15,2013-03-23 11:16:00,
2013-03-23 06:21:00,24.1,19.4,30.08,NNE,19,2.0,3.0,82,0.00,,,0.00,Wunderground v.1.15,2013-03-23 11:21:00,
2013-03-23 06:26:00,24.1,19.1,30.08,NNE,19,4.0,6.0,81,0.00,,,0.00,Wunderground v.1.15,2013-03-23 11:26:00,
2013-03-23 06:31:00,24.1,19.1,30.08,NNE,19,2.0,4.0,81,0.00,,,0.00,Wunderground v.1.15,2013-03-23 11:31:00,
2013-03-23 06:36:00,24.1,19.1,30.08,NNE,19,3.0,4.0,81,0.00,,,0.00,Wunderground v.1.15,2013-03-23 11:36:00,
2013-03-23 06:41:00,24.1,19.1,30.08,NNE,19,0.0,2.0,81,0.00,,,0.00,Wunderground v.1.15,2013-03-23 11:41:00,
2013-03-23 06:47:00,24.1,19.1,30.10,NNE,19,1.0,2.0,81,0.00,,,0.00,Wunderground v.1.15,2013-03-23 11:47:00,
2013-03-23 06:52:00,24.1,19.1,30.10,NNE,19,3.0,3.0,81,0.00,,,0.00,Wunderground v.1.15,2013-03-23 11:52:00,
2013-03-23 06:57:00,24.1,19.1,30.10,NNE,19,3.0,5.0,81,0.00,,,0.00,Wunderground v.1.15,2013-03-23 11:57:00,
2013-03-23 07:02:00,24.1,19.1,30.10,NNE,19,3.0,5.0,81,0.00,,,0.00,Wunderground v.1.15,2013-03-23 12:02:00,
2013-03-23 07:07:00,24.1,19.1,30.10,NNE,17,3.0,6.0,81,0.00,,,0.00,Wunderground v.1.15,2013-03-23 12:07:00,
2013-03-23 07:12:00,24.1,19.1,30.10,NNE,17,7.0,7.0,81,0.00,,,0.00,Wunderground v.1.15,2013-03-23 12:12:00,
2013-03-23 07:17:00,24.1,19.4,30.10,NNE,19,5.0,8.0,82,0.00,,,0.00,Wunderground v.1.15,2013-03-23 12:17:00,
2013-03-23 07:22:00,23.9,19.2,30.10,NNE,22,4.0,6.0,82,0.00,,,0.00,Wunderground v.1.15,2013-03-23 12:22:00,
2013-03-23 07:27:00,23.9,19.2,30.10,NNE,24,6.0,6.0,82,0.00,,,0.00,Wunderground v.1.15,2013-03-23 12:27:00,
2013-03-23 07:32:00,23.9,19.2,30.10,NNE,22,3.0,6.0,82,0.00,,,0.00,Wunderground v.1.15,2013-03-23 12:32:00,
2013-03-23 07:38:00,23.9,19.5,30.10,NNE,23,3.0,6.0,83,0.00,,,0.00,Wunderground v.1.15,2013-03-23 12:38:00,
2013-03-23 07:43:00,23.8,19.4,30.10,NNE,22,1.0,7.0,83,0.00,,,0.00,Wunderground v.1.15,2013-03-23 12:43:00,
2013-03-23 07:48:00,23.8,19.4,30.10,NNE,24,7.0,8.0,83,0.00,,,0.00,Wunderground v.1.15,2013-03-23 12:48:00,
2013-03-23 07:53:00,23.6,19.2,30.10,NNE,19,5.0,9.0,83,0.00,,,0.00,Wunderground v.1.15,2013-03-23 12:53:00,
2013-03-23 07:58:00,23.8,19.4,30.10,NNE,24,7.0,10.0,83,0.00,,,0.00,Wunderground v.1.15,2013-03-23 12:58:00,
2013-03-23 08:03:00,23.6,19.2,30.10,NE,34,5.0,9.0,83,0.00,,,0.00,Wunderground v.1.15,2013-03-23 13:03:00,
2013-03-23 08:08:00,23.5,18.8,30.10,NNE,22,6.0,10.0,82,0.00,,,0.00,Wunderground v.1.15,2013-03-23 13:08:00,
2013-03-23 08:13:00,23.5,18.8,30.10,NNE,28,3.0,7.0,82,0.00,,,0.00,Wunderground v.1.15,2013-03-23 13:13:00,
2013-03-23 08:18:00,23.5,18.8,30.11,NE,36,6.0,7.0,82,0.00,,,0.00,Wunderground v.1.15,2013-03-23 13:18:00,
2013-03-23 08:23:00,23.5,18.5,30.11,NNE,15,7.0,8.0,81,0.00,,,0.00,Wunderground v.1.15,2013-03-23 13:23:00,
2013-03-23 08:28:00,23.3,18.3,30.11,NNE,20,4.0,10.0,81,0.00,,,0.00,Wunderground v.1.15,2013-03-23 13:28:00,
2013-03-23 08:33:00,23.3,18.3,30.11,NNE,24,3.0,9.0,81,0.00,,,0.00,Wunderground v.1.15,2013-03-23 13:33:00,
2013-03-23 08:38:00,23.3,18.3,30.11,NNE,22,7.0,10.0,81,0.00,,,0.00,Wunderground v.1.15,2013-03-23 13:38:00,
2013-03-23 08:43:00,23.2,17.9,30.11,NNE,14,6.0,8.0,80,0.00,,,0.00,Wunderground v.1.15,2013-03-23 13:43:00,
2013-03-23 08:48:00,23.3,17.7,30.10,NNE,20,7.0,11.0,79,0.00,,,0.00,Wunderground v.1.15,2013-03-23 13:48:00,
2013-03-23 08:53:00,23.3,17.5,30.10,NNE,26,5.0,9.0,78,0.00,,,0.00,Wunderground v.1.15,2013-03-23 13:53:00,
2013-03-23 08:58:00,23.3,17.5,30.10,NNE,26,10.0,11.0,78,0.00,,,0.00,Wunderground v.1.15,2013-03-23 13:58:00,
2013-03-23 09:03:00,23.5,17.3,30.11,North,360,9.0,10.0,77,0.00,,,0.00,Wunderground v.1.15,2013-03-23 14:03:00,
2013-03-23 09:08:00,23.6,17.1,30.11,NNE,30,9.0,12.0,76,0.00,,,0.00,Wunderground v.1.15,2013-03-23 14:08:00,
2013-03-23 09:13:00,23.5,16.7,30.11,NNE,19,4.0,10.0,75,0.00,,,0.00,Wunderground v.1.15,2013-03-23 14:13:00,
2013-03-23 09:18:00,23.6,16.5,30.12,NNE,15,6.0,10.0,74,0.00,,,0.00,Wunderground v.1.15,2013-03-23 14:18:00,
2013-03-23 09:23:00,23.8,16.7,30.12,NNE,17,4.0,6.0,74,0.00,,,0.00,Wunderground v.1.15,2013-03-23 14:23:00,
2013-03-23 09:28:00,23.8,16.4,30.12,NNE,16,3.0,7.0,73,0.00,,,0.00,Wunderground v.1.15,2013-03-23 14:28:00,
2013-03-23 09:33:00,23.8,16.1,30.12,NNE,13,8.0,9.0,72,0.00,,,0.00,Wunderground v.1.15,2013-03-23 14:33:00,
2013-03-23 09:38:00,23.9,16.2,30.12,North,9,8.0,9.0,72,0.00,,,0.00,Wunderground v.1.15,2013-03-23 14:38:00,
2013-03-23 09:43:00,23.9,15.9,30.12,North,11,4.0,6.0,71,0.00,,,0.00,Wunderground v.1.15,2013-03-23 14:43:00,
2013-03-23 09:48:00,23.9,15.9,30.12,North,11,3.0,6.0,71,0.00,,,0.00,Wunderground v.1.15,2013-03-23 14:48:00,
2013-03-23 09:53:00,23.9,15.9,30.12,North,11,3.0,4.0,71,0.00,,,0.00,Wunderground v.1.15,2013-03-23 14:53:00,
2013-03-23 09:58:00,24.1,16.1,30.12,North,11,3.0,5.0,71,0.00,,,0.00,Wunderground v.1.15,2013-03-23 14:58:00,
2013-03-23 10:03:00,24.1,15.7,30.12,NNE,15,4.0,10.0,70,0.00,,,0.00,Wunderground v.1.15,2013-03-23 15:03:00,
2013-03-23 10:09:00,24.1,15.7,30.12,NNE,14,6.0,10.0,70,0.00,,,0.00,Wunderground v.1.15,2013-03-23 15:09:00,
2013-03-23 10:14:00,24.2,15.8,30.12,NNE,18,6.0,9.0,70,0.00,,,0.00,Wunderground v.1.15,2013-03-23 15:14:00,
2013-03-23 10:19:00,24.2,15.5,30.13,NNE,20,4.0,9.0,69,0.00,,,0.00,Wunderground v.1.15,2013-03-23 15:19:00,
2013-03-23 10:24:00,24.4,15.3,30.13,NNE,20,2.0,5.0,68,0.00,,,0.00,Wunderground v.1.15,2013-03-23 15:24:00,
2013-03-23 10:29:00,24.4,15.0,30.13,NNE,19,3.0,6.0,67,0.00,,,0.00,Wunderground v.1.15,2013-03-23 15:29:00,
2013-03-23 10:34:00,24.5,15.1,30.14,NNE,21,3.0,6.0,67,0.00,,,0.00,Wunderground v.1.15,2013-03-23 15:34:00,
2013-03-23 10:39:00,24.7,15.3,30.14,NNE,21,5.0,6.0,67,0.00,,,0.00,Wunderground v.1.15,2013-03-23 15:39:00,
2013-03-23 10:44:00,24.8,15.4,30.14,NNE,18,10.0,10.0,67,0.00,,,0.00,Wunderground v.1.15,2013-03-23 15:44:00,
2013-03-23 10:49:00,24.8,15.0,30.13,North,360,5.0,10.0,66,0.00,,,0.00,Wunderground v.1.15,2013-03-23 15:49:00,
2013-03-23 10:54:00,24.8,15.0,30.13,North,10,6.0,9.0,66,0.00,,,0.00,Wunderground v.1.15,2013-03-23 15:54:00,
2013-03-23 10:59:00,24.8,15.0,30.13,North,360,5.0,10.0,66,0.00,,,0.00,Wunderground v.1.15,2013-03-23 15:59:00,
2013-03-23 11:04:00,25.0,14.9,30.13,North,360,2.0,6.0,65,0.00,,,0.00,Wunderground v.1.15,2013-03-23 16:04:00,
2013-03-23 11:09:00,25.1,15.0,30.13,North,360,2.0,6.0,65,0.00,,,0.00,Wunderground v.1.15,2013-03-23 16:09:00,
2013-03-23 11:14:00,25.4,15.3,30.14,North,360,0.0,3.0,65,0.00,,,0.00,Wunderground v.1.15,2013-03-23 16:14:00,
2013-03-23 11:19:00,25.4,14.9,30.14,North,360,0.0,4.0,64,0.00,,,0.00,Wunderground v.1.15,2013-03-23 16:19:00,
2013-03-23 11:24:00,25.6,15.1,30.14,North,360,2.0,3.0,64,0.00,,,0.00,Wunderground v.1.15,2013-03-23 16:24:00,
2013-03-23 11:29:00,25.6,14.4,30.14,North,360,5.0,7.0,62,0.00,,,0.00,Wunderground v.1.15,2013-03-23 16:29:00,
2013-03-23 11:34:00,25.7,14.1,30.14,North,5,7.0,7.0,61,0.00,,,0.00,Wunderground v.1.15,2013-03-23 16:34:00,
2013-03-23 11:39:00,25.8,13.4,30.14,NNE,14,6.0,11.0,59,0.00,,,0.00,Wunderground v.1.15,2013-03-23 16:39:00,
2013-03-23 11:44:00,25.8,13.4,30.12,NNE,24,9.0,13.0,59,0.00,,,0.00,Wunderground v.1.15,2013-03-23 16:44:00,
2013-03-23 11:49:00,25.8,14.2,30.12,NNE,32,10.0,14.0,61,0.00,,,0.00,Wunderground v.1.15,2013-03-23 16:49:00,
2013-03-23 11:54:00,25.8,14.6,30.12,North,360,11.0,11.0,62,0.00,,,0.00,Wunderground v.1.15,2013-03-23 16:54:00,
2013-03-23 11:59:00,25.8,14.6,30.12,NNE,13,6.0,11.0,62,0.00,,,0.00,Wunderground v.1.15,2013-03-23 16:59:00,
2013-03-23 12:04:00,26.0,14.4,30.12,NNW,338,5.0,9.0,61,0.00,,,0.00,Wunderground v.1.15,2013-03-23 17:04:00,
2013-03-23 12:09:00,26.1,14.5,30.12,North,350,4.0,9.0,61,0.00,,,0.00,Wunderground v.1.15,2013-03-23 17:09:00,
2013-03-23 12:14:00,26.1,14.8,30.13,North,351,6.0,9.0,62,0.00,,,0.00,Wunderground v.1.15,2013-03-23 17:14:00,
2013-03-23 12:19:00,26.3,15.0,30.13,North,351,4.0,9.0,62,0.00,,,0.00,Wunderground v.1.15,2013-03-23 17:19:00,
2013-03-23 12:24:00,26.4,15.1,30.13,North,360,4.0,6.0,62,0.00,,,0.00,Wunderground v.1.15,2013-03-23 17:24:00,
2013-03-23 12:29:00,26.7,15.0,30.14,North,360,0.0,6.0,61,0.00,,,0.00,Wunderground v.1.15,2013-03-23 17:29:00,
2013-03-23 12:34:00,27.0,14.9,30.14,North,360,0.0,2.0,60,0.00,,,0.00,Wunderground v.1.15,2013-03-23 17:34:00,
2013-03-23 12:39:00,27.2,15.1,30.14,North,360,0.0,2.0,60,0.00,,,0.00,Wunderground v.1.15,2013-03-23 17:39:00,
2013-03-23 12:44:00,27.2,14.8,30.14,North,9,6.0,8.0,59,0.00,,,0.00,Wunderground v.1.15,2013-03-23 17:44:00,
2013-03-23 12:49:00,27.0,14.6,30.14,NNE,15,3.0,8.0,59,0.00,,,0.00,Wunderground v.1.15,2013-03-23 17:49:00,
2013-03-23 12:54:00,27.3,15.2,30.14,NNE,19,2.0,5.0,60,0.00,,,0.00,Wunderground v.1.15,2013-03-23 17:54:00,
2013-03-23 12:59:00,27.5,14.6,30.12,NNE,17,5.0,7.0,58,0.00,,,0.00,Wunderground v.1.15,2013-03-23 17:59:00,
2013-03-23 13:04:00,27.3,14.1,30.12,North,360,6.0,9.0,57,0.00,,,0.00,Wunderground v.1.15,2013-03-23 18:04:00,
2013-03-23 13:09:00,27.5,14.6,30.12,North,360,5.0,9.0,58,0.00,,,0.00,Wunderground v.1.15,2013-03-23 18:09:00,
2013-03-23 13:14:00,27.6,14.7,30.12,North,349,7.0,7.0,58,0.00,,,0.00,Wunderground v.1.15,2013-03-23 18:14:00,
2013-03-23 13:19:00,27.8,14.5,30.12,NNW,348,3.0,8.0,57,0.00,,,0.00,Wunderground v.1.15,2013-03-23 18:19:00,
2013-03-23 13:24:00,27.9,14.6,30.12,NNW,348,3.0,5.0,57,0.00,,,0.00,Wunderground v.1.15,2013-03-23 18:24:00,
2013-03-23 13:29:00,28.1,14.8,30.12,North,360,10.0,10.0,57,0.00,,,0.00,Wunderground v.1.15,2013-03-23 18:29:00,
2013-03-23 13:34:00,28.2,14.9,30.12,NNW,346,7.0,10.0,57,0.00,,,0.00,Wunderground v.1.15,2013-03-23 18:34:00,
2013-03-23 13:39:00,28.2,14.5,30.12,North,360,7.0,10.0,56,0.00,,,0.00,Wunderground v.1.15,2013-03-23 18:39:00,
2013-03-23 13:44:00,28.4,14.7,30.10,NNE,17,3.0,9.0,56,0.00,,,0.00,Wunderground v.1.15,2013-03-23 18:44:00,
2013-03-23 13:49:00,28.2,14.5,30.10,North,360,9.0,11.0,56,0.00,,,0.00,Wunderground v.1.15,2013-03-23 18:49:00,
2013-03-23 13:54:00,28.1,14.4,30.10,NNE,14,6.0,8.0,56,0.00,,,0.00,Wunderground v.1.15,2013-03-23 18:54:00,
2013-03-23 13:59:00,28.1,14.4,30.11,North,360,6.0,10.0,56,0.00,,,0.00,Wunderground v.1.15,2013-03-23 18:59:00,
2013-03-23 14:04:00,28.4,14.7,30.11,North,349,4.0,7.0,56,0.00,,,0.00,Wunderground v.1.15,2013-03-23 19:04:00,
2013-03-23 14:09:00,28.4,14.3,30.11,North,360,3.0,9.0,55,0.00,,,0.00,Wunderground v.1.15,2013-03-23 19:09:00,
2013-03-23 14:14:00,28.4,14.7,30.10,North,360,5.0,7.0,56,0.00,,,0.00,Wunderground v.1.15,2013-03-23 19:14:00,
2013-03-23 14:19:00,28.7,15.0,30.10,North,5,5.0,7.0,56,0.00,,,0.00,Wunderground v.1.15,2013-03-23 19:19:00,
2013-03-23 14:24:00,29.0,14.8,30.10,North,360,5.0,8.0,55,0.00,,,0.00,Wunderground v.1.15,2013-03-23 19:24:00,
2013-03-23 14:29:00,28.8,14.6,30.09,North,360,5.0,11.0,55,0.00,,,0.00,Wunderground v.1.15,2013-03-23 19:29:00,
2013-03-23 14:34:00,29.1,15.3,30.09,NNE,14,7.0,11.0,56,0.00,,,0.00,Wunderground v.1.15,2013-03-23 19:34:00,
2013-03-23 14:39:00,29.5,15.3,30.09,North,360,6.0,11.0,55,0.00,,,0.00,Wunderground v.1.15,2013-03-23 19:39:00,
2013-03-23 14:44:00,29.5,15.3,30.07,NNE,29,10.0,14.0,55,0.00,,,0.00,Wunderground v.1.15,2013-03-23 19:44:00,
2013-03-23 14:49:00,29.8,15.6,30.07,NNE,25,15.0,16.0,55,0.00,,,0.00,Wunderground v.1.15,2013-03-23 19:49:00,
2013-03-23 14:55:00,30.0,15.3,30.07,NNE,14,13.0,17.0,54,0.00,,,0.00,Wunderground v.1.15,2013-03-23 19:55:00,
2013-03-23 15:00:00,30.0,15.8,30.06,North,360,14.0,14.0,55,0.00,,,0.00,Wunderground v.1.15,2013-03-23 20:00:00,
2013-03-23 15:05:00,30.0,15.8,30.06,NNE,33,10.0,18.0,55,0.00,,,0.00,Wunderground v.1.15,2013-03-23 20:05:00,
2013-03-23 15:10:00,30.1,16.3,30.06,NNE,19,9.0,11.0,56,0.00,,,0.00,Wunderground v.1.15,2013-03-23 20:10:00,
2013-03-23 15:15:00,30.1,15.9,30.06,North,9,5.0,13.0,55,0.00,,,0.00,Wunderground v.1.15,2013-03-23 20:15:00,
2013-03-23 15:20:00,30.4,16.1,30.06,NNE,22,6.0,8.0,55,0.00,,,0.00,Wunderground v.1.15,2013-03-23 20:20:00,
2013-03-23 15:25:00,30.6,15.9,30.06,NNE,17,9.0,15.0,54,0.00,,,0.00,Wunderground v.1.15,2013-03-23 20:25:00,
2013-03-23 15:30:00,30.4,16.1,30.06,NNE,20,8.0,10.0,55,0.00,,,0.00,Wunderground v.1.15,2013-03-23 20:30:00,
2013-03-23 15:35:00,31.2,16.5,30.06,NE,40,6.0,10.0,54,0.00,,,0.00,Wunderground v.1.15,2013-03-23 20:35:00,
2013-03-23 15:40:00,31.6,16.4,30.06,NNE,12,11.0,13.0,53,0.00,,,0.00,Wunderground v.1.15,2013-03-23 20:40:00,
2013-03-23 15:45:00,31.5,17.2,30.06,NNE,15,10.0,13.0,55,0.00,,,0.00,Wunderground v.1.15,2013-03-23 20:45:00,
2013-03-23 15:50:00,31.6,16.8,30.06,North,360,9.0,11.0,54,0.00,,,0.00,Wunderground v.1.15,2013-03-23 20:50:00,
2013-03-23 15:55:00,31.6,17.7,30.06,NNE,22,7.0,12.0,56,0.00,,,0.00,Wunderground v.1.15,2013-03-23 20:55:00,
2013-03-23 16:00:00,31.5,17.6,30.06,North,349,6.0,9.0,56,0.00,,,0.00,Wunderground v.1.15,2013-03-23 21:00:00,
2013-03-23 16:05:00,31.8,17.5,30.06,North,360,7.0,10.0,55,0.00,,,0.00,Wunderground v.1.15,2013-03-23 21:05:00,
2013-03-23 16:10:00,31.8,17.5,30.06,North,351,10.0,11.0,55,0.00,,,0.00,Wunderground v.1.15,2013-03-23 21:10:00,
2013-03-23 16:15:00,31.5,16.7,30.07,NNW,333,5.0,11.0,54,0.00,,,0.00,Wunderground v.1.15,2013-03-23 21:15:00,
2013-03-23 16:20:00,31.0,16.7,30.07,North,10,5.0,7.0,55,0.00,,,0.00,Wunderground v.1.15,2013-03-23 21:20:00,
2013-03-23 16:25:00,31.2,16.9,30.07,North,360,10.0,12.0,55,0.00,,,0.00,Wunderground v.1.15,2013-03-23 21:25:00,
2013-03-23 16:30:00,31.3,17.0,30.07,North,360,6.0,9.0,55,0.00,,,0.00,Wunderground v.1.15,2013-03-23 21:30:00,
2013-03-23 16:35:00,31.3,17.0,30.07,NNE,13,9.0,11.0,55,0.00,,,0.00,Wunderground v.1.15,2013-03-23 21:35:00,
2013-03-23 16:40:00,31.0,16.7,30.07,NE,34,9.0,10.0,55,0.00,,,0.00,Wunderground v.1.15,2013-03-23 21:40:00,
2013-03-23 16:45:00,31.2,17.3,30.07,NNE,17,9.0,12.0,56,0.00,,,0.00,Wunderground v.1.15,2013-03-23 21:45:00,
2013-03-23 16:50:00,31.2,17.3,30.07,North,5,9.0,10.0,56,0.00,,,0.00,Wunderground v.1.15,2013-03-23 21:50:00,
2013-03-23 16:55:00,31.5,17.6,30.07,NNW,342,11.0,11.0,56,0.00,,,0.00,Wunderground v.1.15,2013-03-23 21:55:00,
2013-03-23 17:00:00,31.2,17.7,30.07,NNW,340,7.0,8.0,57,0.00,,,0.00,Wunderground v.1.15,2013-03-23 22:00:00,
2013-03-23 17:05:00,31.3,17.8,30.07,NNE,12,8.0,13.0,57,0.00,,,0.00,Wunderground v.1.15,2013-03-23 22:05:00,
2013-03-23 17:11:00,31.0,17.9,30.07,North,349,9.0,10.0,58,0.00,,,0.00,Wunderground v.1.15,2013-03-23 22:11:00,
2013-03-23 17:16:00,31.0,17.5,30.07,North,349,9.0,12.0,57,0.00,,,0.00,Wunderground v.1.15,2013-03-23 22:16:00,
2013-03-23 17:21:00,30.9,17.4,30.07,North,360,10.0,11.0,57,0.00,,,0.00,Wunderground v.1.15,2013-03-23 22:21:00,
2013-03-23 17:26:00,30.7,16.8,30.07,North,11,5.0,13.0,56,0.00,,,0.00,Wunderground v.1.15,2013-03-23 22:26:00,
2013-03-23 17:31:00,30.9,17.0,30.07,North,9,6.0,10.0,56,0.00,,,0.00,Wunderground v.1.15,2013-03-23 22:31:00,
2013-03-23 17:36:00,31.2,17.3,30.07,NNE,14,5.0,10.0,56,0.00,,,0.00,Wunderground v.1.15,2013-03-23 22:36:00,
2013-03-23 17:41:00,30.9,17.0,30.07,NNW,346,9.0,11.0,56,0.00,,,0.00,Wunderground v.1.15,2013-03-23 22:41:00,
2013-03-23 17:46:00,30.7,17.7,30.07,North,360,4.0,12.0,58,0.00,,,0.00,Wunderground v.1.15,2013-03-23 22:46:00,
2013-03-23 17:51:00,30.6,17.6,30.07,North,351,9.0,10.0,58,0.00,,,0.00,Wunderground v.1.15,2013-03-23 22:51:00,
2013-03-23 17:56:00,30.4,17.4,30.07,NNW,340,9.0,13.0,58,0.00,,,0.00,Wunderground v.1.15,2013-03-23 22:56:00,
2013-03-23 18:01:00,30.3,17.7,30.07,NNW,336,7.0,11.0,59,0.00,,,0.00,Wunderground v.1.15,2013-03-23 23:01:00,
2013-03-23 18:06:00,30.1,17.5,30.07,NNW,331,10.0,13.0,59,0.00,,,0.00,Wunderground v.1.15,2013-03-23 23:06:00,
2013-03-23 18:11:00,30.0,17.4,30.07,NNW,343,6.0,10.0,59,0.00,,,0.00,Wunderground v.1.15,2013-03-23 23:11:00,
2013-03-23 18:16:00,30.0,17.8,30.08,North,5,7.0,12.0,60,0.00,,,0.00,Wunderground v.1.15,2013-03-23 23:16:00,
2013-03-23 18:21:00,30.1,17.5,30.08,NNE,15,9.0,13.0,59,0.00,,,0.00,Wunderground v.1.15,2013-03-23 23:21:00,
2013-03-23 18:26:00,30.1,17.9,30.08,North,360,8.0,13.0,60,0.00,,,0.00,Wunderground v.1.15,2013-03-23 23:26:00,
2013-03-23 18:31:00,30.0,17.8,30.08,NNE,22,9.0,10.0,60,0.00,,,0.00,Wunderground v.1.15,2013-03-23 23:31:00,
2013-03-23 18:36:00,29.8,18.0,30.08,North,11,9.0,12.0,61,0.00,,,0.00,Wunderground v.1.15,2013-03-23 23:36:00,
2013-03-23 18:41:00,29.7,18.3,30.08,North,360,7.0,9.0,62,0.00,,,0.00,Wunderground v.1.15,2013-03-23 23:41:00,
2013-03-23 18:46:00,29.7,18.3,30.08,NNW,344,7.0,12.0,62,0.00,,,0.00,Wunderground v.1.15,2013-03-23 23:46:00,
2013-03-23 18:51:00,29.7,18.3,30.08,North,360,6.0,8.0,62,0.00,,,0.00,Wunderground v.1.15,2013-03-23 23:51:00,
2013-03-23 18:56:00,29.5,18.1,30.08,NNW,346,6.0,13.0,62,0.00,,,0.00,Wunderground v.1.15,2013-03-23 23:56:00,
2013-03-23 19:01:00,29.5,18.1,30.08,North,360,5.0,9.0,62,0.00,,,0.00,Wunderground v.1.15,2013-03-24 00:01:00,
2013-03-23 19:06:00,29.4,18.3,30.08,North,351,10.0,13.0,63,0.00,,,0.00,Wunderground v.1.15,2013-03-24 00:06:00,
2013-03-23 19:11:00,29.3,18.3,30.08,North,360,11.0,13.0,63,0.00,,,0.00,Wunderground v.1.15,2013-03-24 00:11:00,
2013-03-23 19:16:00,29.3,18.6,30.09,North,360,11.0,13.0,64,0.00,,,0.00,Wunderground v.1.15,2013-03-24 00:16:00,
2013-03-23 19:21:00,29.3,18.3,30.09,NNE,20,10.0,11.0,63,0.00,,,0.00,Wunderground v.1.15,2013-03-24 00:21:00,
2013-03-23 19:26:00,29.3,18.6,30.09,North,351,8.0,11.0,64,0.00,,,0.00,Wunderground v.1.15,2013-03-24 00:26:00,
2013-03-23 19:31:00,29.1,18.8,30.09,NNE,12,11.0,11.0,65,0.00,,,0.00,Wunderground v.1.15,2013-03-24 00:31:00,
2013-03-23 19:36:00,29.1,19.2,30.09,NNE,16,5.0,11.0,66,0.00,,,0.00,Wunderground v.1.15,2013-03-24 00:36:00,
2013-03-23 19:41:00,29.1,19.2,30.09,NNE,12,9.0,11.0,66,0.00,,,0.00,Wunderground v.1.15,2013-03-24 00:41:00,
2013-03-23 19:46:00,29.0,19.1,30.09,North,360,6.0,13.0,66,0.00,,,0.00,Wunderground v.1.15,2013-03-24 00:46:00,
2013-03-23 19:51:00,28.8,18.9,30.09,NNE,12,6.0,8.0,66,0.00,,,0.00,Wunderground v.1.15,2013-03-24 00:51:00,
2013-03-23 19:56:00,28.7,18.8,30.09,North,360,10.0,14.0,66,0.00,,,0.00,Wunderground v.1.15,2013-03-24 00:56:00,
2013-03-23 20:01:00,28.7,18.8,30.09,NNE,13,7.0,11.0,66,0.00,,,0.00,Wunderground v.1.15,2013-03-24 01:01:00,
2013-03-23 20:06:00,28.5,18.9,30.09,North,360,11.0,13.0,67,0.00,,,0.00,Wunderground v.1.15,2013-03-24 01:06:00,
2013-03-23 20:11:00,28.4,18.8,30.09,North,5,7.0,11.0,67,0.00,,,0.00,Wunderground v.1.15,2013-03-24 01:11:00,
2013-03-23 20:16:00,28.2,18.6,30.10,NNE,12,5.0,12.0,67,0.00,,,0.00,Wunderground v.1.15,2013-03-24 01:16:00,
2013-03-23 20:21:00,28.1,19.2,30.10,NNW,344,8.0,14.0,69,0.00,,,0.00,Wunderground v.1.15,2013-03-24 01:21:00,
2013-03-23 20:26:00,27.9,18.7,30.10,North,360,9.0,14.0,68,0.00,,,0.00,Wunderground v.1.15,2013-03-24 01:26:00,
2013-03-23 20:31:00,27.9,18.7,30.10,North,351,6.0,8.0,68,0.00,,,0.00,Wunderground v.1.15,2013-03-24 01:31:00,
2013-03-23 20:36:00,27.9,18.7,30.10,NNW,345,7.0,8.0,68,0.00,,,0.00,Wunderground v.1.15,2013-03-24 01:36:00,
2013-03-23 20:41:00,27.8,19.3,30.10,North,351,5.0,7.0,70,0.00,,,0.00,Wunderground v.1.15,2013-03-24 01:41:00,
2013-03-23 20:46:00,27.6,19.1,30.10,NNW,346,4.0,10.0,70,0.00,,,0.00,Wunderground v.1.15,2013-03-24 01:46:00,
2013-03-23 20:51:00,27.3,19.1,30.10,North,350,6.0,12.0,71,0.00,,,0.00,Wunderground v.1.15,2013-03-24 01:51:00,
2013-03-23 20:56:00,27.2,19.0,30.10,North,349,5.0,12.0,71,0.00,,,0.00,Wunderground v.1.15,2013-03-24 01:56:00,
2013-03-23 21:02:00,27.0,19.2,30.11,North,350,5.0,7.0,72,0.00,,,0.00,Wunderground v.1.15,2013-03-24 02:02:00,
2013-03-23 21:07:00,27.0,18.8,30.11,NNE,19,10.0,10.0,71,0.00,,,0.00,Wunderground v.1.15,2013-03-24 02:07:00,
2013-03-23 21:12:00,26.7,18.6,30.11,NNW,346,9.0,12.0,71,0.00,,,0.00,Wunderground v.1.15,2013-03-24 02:12:00,
2013-03-23 21:17:00,26.7,18.6,30.11,North,360,7.0,12.0,71,0.00,,,0.00,Wunderground v.1.15,2013-03-24 02:17:00,
2013-03-23 21:22:00,26.7,18.9,30.11,NNE,15,5.0,8.0,72,0.00,,,0.00,Wunderground v.1.15,2013-03-24 02:22:00,
2013-03-23 21:27:00,26.6,18.8,30.11,NNE,15,4.0,11.0,72,0.00,,,0.00,Wunderground v.1.15,2013-03-24 02:27:00,
2013-03-23 21:32:00,26.4,18.6,30.12,North,360,7.0,9.0,72,0.00,,,0.00,Wunderground v.1.15,2013-03-24 02:32:00,
2013-03-23 21:37:00,26.4,18.9,30.12,NNE,16,7.0,9.0,73,0.00,,,0.00,Wunderground v.1.15,2013-03-24 02:37:00,
2013-03-23 21:42:00,26.3,18.8,30.12,North,360,8.0,12.0,73,0.00,,,0.00,Wunderground v.1.15,2013-03-24 02:42:00,
2013-03-23 21:47:00,26.1,18.3,30.12,North,360,4.0,12.0,72,0.00,,,0.00,Wunderground v.1.15,2013-03-24 02:47:00,
2013-03-23 21:52:00,26.0,17.9,30.12,North,351,7.0,9.0,71,0.00,,,0.00,Wunderground v.1.15,2013-03-24 02:52:00,
2013-03-23 21:57:00,25.8,17.7,30.12,North,360,10.0,10.0,71,0.00,,,0.00,Wunderground v.1.15,2013-03-24 02:57:00,
2013-03-23 22:02:00,25.8,17.7,30.12,North,360,6.0,7.0,71,0.00,,,0.00,Wunderground v.1.15,2013-03-24 03:02:00,
2013-03-23 22:07:00,25.8,17.7,30.12,North,360,5.0,11.0,71,0.00,,,0.00,Wunderground v.1.15,2013-03-24 03:07:00,
2013-03-23 22:12:00,25.8,18.0,30.12,NNE,24,8.0,10.0,72,0.00,,,0.00,Wunderground v.1.15,2013-03-24 03:12:00,
2013-03-23 22:17:00,25.7,18.6,30.12,North,10,10.0,13.0,74,0.00,,,0.00,Wunderground v.1.15,2013-03-24 03:17:00,
2013-03-23 22:22:00,25.6,17.2,30.12,North,360,4.0,10.0,70,0.00,,,0.00,Wunderground v.1.15,2013-03-24 03:22:00,
2013-03-23 22:27:00,25.6,16.8,30.12,North,351,6.0,10.0,69,0.00,,,0.00,Wunderground v.1.15,2013-03-24 03:27:00,
2013-03-23 22:32:00,25.4,16.3,30.12,North,360,11.0,12.0,68,0.00,,,0.00,Wunderground v.1.15,2013-03-24 03:32:00,
2013-03-23 22:37:00,25.4,16.0,30.12,North,351,11.0,13.0,67,0.00,,,0.00,Wunderground v.1.15,2013-03-24 03:37:00,
2013-03-23 22:42:00,25.3,15.9,30.12,North,350,12.0,12.0,67,0.00,,,0.00,Wunderground v.1.15,2013-03-24 03:42:00,
2013-03-23 22:47:00,25.3,15.9,30.12,NNW,341,7.0,12.0,67,0.00,,,0.00,Wunderground v.1.15,2013-03-24 03:47:00,
2013-03-23 22:52:00,25.3,16.2,30.12,North,350,9.0,10.0,68,0.00,,,0.00,Wunderground v.1.15,2013-03-24 03:52:00,
2013-03-23 22:57:00,25.3,16.2,30.12,NNE,13,7.0,12.0,68,0.00,,,0.00,Wunderground v.1.15,2013-03-24 03:57:00,
2013-03-23 23:00:00,25.3,16.2,30.12,NNW,345,7.0,8.0,68,0.00,,,0.00,Wunderground v.1.15,2013-03-24 04:00:00,
2013-03-23 23:05:00,25.1,16.0,30.12,North,9,11.0,13.0,68,0.00,,,0.00,Wunderground v.1.15,2013-03-24 04:05:00,
2013-03-23 23:10:00,25.0,15.6,30.12,NNE,17,7.0,12.0,67,0.00,,,0.00,Wunderground v.1.15,2013-03-24 04:10:00,
2013-03-23 23:11:00,25.0,15.9,30.12,North,351,7.0,12.0,68,0.00,,,0.00,Wunderground v.1.15,2013-03-24 04:11:00,
2013-03-23 23:13:00,25.0,15.9,30.12,North,11,10.0,13.0,68,0.00,,,0.00,Wunderground v.1.15,2013-03-24 04:13:00,
2013-03-23 23:18:00,25.0,16.3,30.11,North,5,11.0,13.0,69,0.00,,,0.00,Wunderground v.1.15,2013-03-24 04:18:00,
2013-03-23 23:23:00,24.8,15.7,30.11,North,351,12.0,13.0,68,0.00,,,0.00,Wunderground v.1.15,2013-03-24 04:23:00,
2013-03-23 23:28:00,24.7,15.3,30.11,North,351,5.0,14.0,67,0.00,,,0.00,Wunderground v.1.15,2013-03-24 04:28:00,
2013-03-23 23:33:00,24.5,14.8,30.11,North,360,9.0,12.0,66,0.00,,,0.00,Wunderground v.1.15,2013-03-24 04:33:00,
2013-03-23 23:38:00,24.5,15.1,30.11,NNE,15,11.0,12.0,67,0.00,,,0.00,Wunderground v.1.15,2013-03-24 04:38:00,
2013-03-23 23:43:00,24.5,15.1,30.11,North,360,8.0,13.0,67,0.00,,,0.00,Wunderground v.1.15,2013-03-24 04:43:00,
2013-03-23 23:48:00,24.4,15.3,30.11,NNE,15,8.0,13.0,68,0.00,,,0.00,Wunderground v.1.15,2013-03-24 04:48:00,
2013-03-23 23:53:00,24.4,16.0,30.11,North,360,6.0,12.0,70,0.00,,,0.00,Wunderground v.1.15,2013-03-24 04:53:00,
2013-03-23 23:58:00,24.2,16.1,30.11,North,360,7.0,13.0,71,0.00,,,0.00,Wunderground v.1.15,2013-03-24 04:58:00,